Terminal Aerodrome Forecast
Issued by NWS Wilmington, NC

Home | Current Version | Previous Version | Text Only | Print | Product List | Glossary On
Versions: 1 2 3 4 5 6 7 8 9 10 11 12 13 14 15 16 17 18
209
FTUS42 KILM 091122
TAFILM
TAF
KILM 091122Z 0912/1012 34008KT P6SM FEW250
     FM091500 36011G17KT P6SM FEW250
     FM092300 35004KT P6SM SKC=

USA.gov is the U.S. government's official web portal to all federal, state and local government web resources and services.